Cape Girardeau, MO

1:44 AM CST on December 12, 2017 (GMT -0600)
Cape Girardeau Regional

Weather History for KCGI - March, 2012

Change the Weather History Date:

Tuesday, March 27, 2012

  Actual Average Record
Temperature  
Mean Temperature 66 °F 51 °F  
Max Temperature 78 °F 62 °F 82 °F (2007)
Min Temperature 53 °F 39 °F 19 °F (2001)
Degree Days  
Heating Degree Days 0 15  
Month to date heating degree days 203 504  
Since 1 July heating degree days 3122 4001  
Cooling Degree Days 1 0  
Month to date cooling degree days 33 0  
Year to date cooling degree days 33 0  
Growing Degree Days 15 (Base 50)    
Moisture  
Dew Point 49 °F    
Average Humidity 60    
Maximum Humidity 73    
Minimum Humidity 46    
Precipitation  
Precipitation 0.00 in 0.15 in 6.73 in (1977)
Month to date precipitation 3.11 3.77  
Year to date precipitation 7.99 10.65  
Sea Level Pressure  
Sea Level Pressure 30.08 in    
Wind  
Wind Speed 7 mph (SSE)    
Max Wind Speed 16 mph    
Max Gust Speed 22 mph    
Visibility 10 miles    
Events      
T = Trace of Precipitation, MM = Missing Value Source: NWS Daily Summary

Daily Weather History Graph

Daily Weather History Graph

Search for Another Location

Airport or City:

Trip Planner

Search our weather history database for the weather conditions in past years. The results will help you decide how hot, cold, wet, or windy it might be!

Date:

Astronomy

Mar. 27, 2012 Rise Set
Actual Time 6:50 AM CDT 7:16 PM CDT
Civil Twilight 6:24 AM CDT 7:43 PM CDT
Nautical Twilight 5:53 AM CDT 8:13 PM CDT
Astronomical Twilight 5:22 AM CDT 8:45 PM CDT
Moon 9:27 AM CDT (3/27) No Moon Set
Length of Visible Light 13h 18m
Length of Day
12h 26m
Waxing Crescent, 22% of the Moon is Illuminated
Mar 27
Waxing Crescent
Mar 30
First Quarter
Apr 6
Full
Apr 13
Last Quarter
Apr 21
New

Hourly Weather History & Observations

Time (CDT) Temp. Dew Point Humidity Pressure Visibility Wind Dir Wind Speed Gust Speed Precip Events Conditions
12:53 AM 60.1 °F 46.0 °F 60% 30.11 in 10.0 mi East 10.4 mph - N/A   Clear
1:53 AM 60.1 °F 43.0 °F 53% 30.10 in 10.0 mi ESE 10.4 mph - N/A   Clear
2:53 AM 57.9 °F 41.0 °F 53% 30.12 in 10.0 mi East 8.1 mph - N/A   Clear
3:53 AM 55.9 °F 41.0 °F 57% 30.11 in 10.0 mi East 9.2 mph - N/A   Clear
4:53 AM 55.0 °F 41.0 °F 59% 30.12 in 10.0 mi ESE 8.1 mph - N/A   Clear
5:53 AM 54.0 °F 39.9 °F 59% 30.14 in 10.0 mi ESE 5.8 mph - N/A   Clear
6:53 AM 53.1 °F 39.0 °F 59% 30.15 in 10.0 mi ESE 5.8 mph - N/A   Clear
7:53 AM 54.0 °F 41.0 °F 62% 30.16 in 10.0 mi ESE 5.8 mph - N/A   Clear
8:53 AM 57.0 °F 41.0 °F 55% 30.16 in 10.0 mi SE 8.1 mph - N/A   Clear
9:53 AM 61.0 °F 42.1 °F 50% 30.16 in 10.0 mi SSE 5.8 mph - N/A   Clear
10:53 AM 64.0 °F 44.1 °F 48% 30.14 in 10.0 mi SSE 10.4 mph - N/A   Clear
11:53 AM 69.1 °F 48.0 °F 47% 30.13 in 10.0 mi South 8.1 mph - N/A   Clear
12:53 PM 71.1 °F 50.0 °F 47% 30.11 in 10.0 mi South 6.9 mph - N/A   Clear
1:53 PM 75.0 °F 54.0 °F 48% 30.07 in 10.0 mi South 8.1 mph - N/A   Clear
2:53 PM 75.9 °F 57.0 °F 52% 30.04 in 10.0 mi South 10.4 mph 18.4 mph N/A   Clear
4:53 PM 77.0 °F 55.9 °F 48% 30.00 in 10.0 mi SSW 9.2 mph 19.6 mph N/A   Clear
5:53 PM 75.9 °F 55.9 °F 50% 30.00 in 10.0 mi SSW 8.1 mph - N/A   Clear
6:53 PM 72.0 °F 57.0 °F 59% 29.99 in 10.0 mi SSW 4.6 mph - N/A   Clear
7:53 PM 66.9 °F 57.0 °F 70% 29.99 in 10.0 mi South 4.6 mph - N/A   Clear
8:53 PM 64.9 °F 55.0 °F 70% 30.00 in 10.0 mi South 5.8 mph - N/A   Clear
9:53 PM 64.0 °F 55.9 °F 75% 30.01 in 10.0 mi South 4.6 mph - N/A   Clear
10:53 PM 66.9 °F 55.9 °F 68% 30.01 in 10.0 mi SSW 3.5 mph - N/A   Clear
11:53 PM 68.0 °F 57.0 °F 68% 30.01 in 10.0 mi SSW 5.8 mph - N/A   Clear